GW3419 Weather Reports


Display with metric or nautical units.
time (UTC)temp
F
wind
direction
speed
MPH
gust
MPH
rain 1hr
in
rain 24hr
in
rain mn
in
humidity
%
barometer
mb
20260506181930 42 326 5.0 10.0 0.00 0.00 0.00 52 1011.0
20260506181428 42 5 2.0 13.0 0.00 0.00 0.00 52 1011.1
20260506180924 42 343 8.0 15.0 0.00 0.00 0.00 52 1011.3
20260506180420 42 204 2.0 14.0 0.00 0.00 0.00 52 1011.0
20260506175918 42 268 4.0 11.0 0.00 0.00 0.00 50 1011.1
20260506175414 42 0 3.0 20.0 0.00 0.00 0.00 51 1011.1
20260506174911 42 111 2.0 15.0 0.00 0.00 0.00 52 1011.0
20260506174408 42 248 6.0 15.0 0.00 0.00 0.00 52 1011.1
20260506173906 42 180 7.0 14.0 0.00 0.00 0.00 52 1011.1
20260506173402 42 329 19.0 19.0 0.00 0.00 0.00 52 1011.2
20260506172900 42 102 2.0 26.0 0.00 0.00 0.00 53 1011.1
20260506172356 43 226 2.0 11.0 0.00 0.00 0.00 53 1011.2
20260506171853 43 330 2.0 14.0 0.00 0.00 0.00 53 1011.2
20260506171351 42 282 3.0 11.0 0.00 0.00 0.00 53 1011.6
20260506170848 42 217 5.0 15.0 0.00 0.00 0.00 52 1011.1
20260506170343 42 258 2.0 15.0 0.00 0.00 0.00 51 1011.0
20260506165837 42 257 4.0 15.0 0.00 0.00 0.00 53 1011.1
20260506165334 43 350 7.0 17.0 0.00 0.00 0.00 52 1011.5
20260506164825 42 327 7.0 17.0 0.00 0.00 0.00 52 1011.1
20260506164322 43 286 3.0 20.0 0.00 0.00 0.00 51 1011.2
20260506163820 43 295 4.0 16.0 0.00 0.00 0.00 53 1011.2
20260506163314 43 313 7.0 28.0 0.00 0.00 0.00 53 1011.2
20260506162810 42 323 6.0 23.0 0.00 0.00 0.00 52 1011.0
20260506162308 42 313 4.0 22.0 0.00 0.00 0.00 52 1011.0
20260506161804 43 216 10.0 16.0 0.00 0.00 0.00 53 1011.0
20260506161302 43 306 5.0 22.0 0.00 0.00 0.00 51 1011.0
20260506160754 42 287 8.0 27.0 0.00 0.00 0.00 51 1010.8
20260506160250 42 10 2.0 29.0 0.00 0.00 0.00 52 1011.1
20260506155749 43 318 11.0 23.0 0.00 0.00 0.00 51 1010.8
20260506155245 43 323 4.0 14.0 0.00 0.00 0.00 51 1010.8
20260506153353 46 72 3.0 19.0 0.00 0.00 0.00 49 1010.6
20260506152850 44 319 5.0 16.0 0.00 0.00 0.00 50 1010.6
20260506152347 43 211 5.0 19.0 0.00 0.00 0.00 51 1010.7
20260506151845 42 203 7.0 18.0 0.00 0.00 0.00 51 1010.8
20260506151342 43 288 3.0 16.0 0.00 0.00 0.00 51 1010.7
20260506150839 44 338 5.0 23.0 0.00 0.00 0.00 48 1010.9
20260506150335 45 288 4.0 16.0 0.00 0.00 0.00 51 1010.7
20260506145832 43 286 3.0 15.0 0.00 0.00 0.00 52 1010.9
20260506145329 42 352 3.0 20.0 0.00 0.00 0.00 52 1010.6
20260506144826 43 287 9.0 14.0 0.00 0.00 0.00 53 1010.8
20260506144322 43 265 3.0 14.0 0.00 0.00 0.00 54 1010.7
20260506143821 43 309 5.0 15.0 0.00 0.00 0.00 54 1011.1
20260506143318 43 337 7.0 13.0 0.00 0.00 0.00 52 1011.0
20260506142816 43 322 7.0 19.0 0.00 0.00 0.00 53 1010.8
20260506142314 43 35 3.0 17.0 0.00 0.00 0.00 54 1010.9
20260506141812 43 283 3.0 9.0 0.00 0.00 0.00 53 1010.9
20260506141310 44 236 3.0 13.0 0.00 0.00 0.00 51 1010.7
20260506140807 43 313 7.0 12.0 0.00 0.00 0.00 55 1010.5
20260506140304 42 359 3.0 12.0 0.00 0.00 0.00 54 1010.9
20260506135801 42 351 6.0 9.0 0.00 0.00 0.00 54 1010.8
20260506135257 43 4 4.0 11.0 0.00 0.00 0.00 56 1010.8
20260506134754 43 187 2.0 14.0 0.00 0.00 0.00 57 1010.6
20260506134250 42 230 2.0 6.0 0.00 0.00 0.00 59 1010.8
20260506133747 41 314 5.0 11.0 0.00 0.00 0.00 59 1010.6
20260506133244 41 355 5.0 12.0 0.00 0.00 0.00 61 1010.7
20260506132741 40 324 5.0 11.0 0.00 0.00 0.00 63 1010.7
20260506132238 39 296 4.0 12.0 0.00 0.00 0.00 66 1010.6
20260506131736 39 337 4.0 8.0 0.00 0.00 0.00 68 1010.7
20260506131232 38 337 3.0 7.0 0.00 0.00 0.00 70 1010.8
20260506130729 37 340 5.0 6.0 0.00 0.00 0.00 69 1010.6
20260506130226 37 82 0.0 5.0 0.00 0.00 0.00 71 1010.4
20260506125724 37 125 2.0 3.0 0.00 0.00 0.00 72 1010.5
20260506125222 36 152 1.0 5.0 0.00 0.00 0.00 74 1010.5
20260506124719 35 314 2.0 5.0 0.00 0.00 0.00 75 1010.4
20260506124217 34 229 0.0 4.0 0.00 0.00 0.00 76 1010.2
20260506123714 34 344 2.0 3.0 0.00 0.00 0.00 76 1010.3
20260506123213 33 6 1.0 3.0 0.00 0.00 0.00 77 1010.1
20260506122709 33 341 0.0 3.0 0.00 0.00 0.00 77 1010.1
20260506122207 33 38 2.0 3.0 0.00 0.00 0.00 77 1010.1
20260506121705 33 0 0.0 4.0 0.00 0.00 0.00 76 1010.1
20260506121201 34 26 2.0 4.0 0.00 0.00 0.00 74 1010.1
20260506120659 33 58 1.0 7.0 0.00 0.00 0.00 75 1010.2
20260506120156 32 316 0.0 5.0 0.00 0.00 0.00 78 1009.8
20260506115654 30 311 2.0 6.0 0.00 0.00 0.00 82 1009.7
20260506115152 30 23 2.0 4.0 0.00 0.00 0.00 83 1009.6
20260506114649 29 20 1.0 5.0 0.00 0.00 0.00 84 1009.6
20260506114147 28 281 2.0 5.0 0.00 0.00 0.00 84 1009.7
20260506113645 28 327 2.0 5.0 0.00 0.00 0.00 85 1009.7
20260506113142 28 297 3.0 5.0 0.00 0.00 0.00 85 1009.6
20260506112638 28 344 0.0 4.0 0.00 0.00 0.00 85 1009.5
20260506112136 28 346 2.0 5.0 0.00 0.00 0.00 86 1009.5
20260506111633 28 38 2.0 6.0 0.00 0.00 0.00 86 1009.7
20260506111131 27 291 0.0 4.0 0.00 0.00 0.00 86 1009.6
20260506110628 27 272 1.0 4.0 0.00 0.00 0.00 86 1009.5
20260506110125 28 242 1.0 4.0 0.00 0.00 0.00 86 1009.7
20260506105622 28 119 0.0 4.0 0.00 0.00 0.00 86 1009.5
20260506105119 27 313 1.0 3.0 0.00 0.00 0.00 86 1009.3
20260506104617 28 39 0.0 4.0 0.00 0.00 0.00 85 1009.4
20260506104114 28 329 3.0 4.0 0.00 0.00 0.00 86 1009.2
20260506103612 28 27 2.0 3.0 0.00 0.00 0.00 85 1009.1
20260506103108 28 347 2.0 4.0 0.00 0.00 0.00 85 1009.1
20260506102607 28 344 2.0 4.0 0.00 0.00 0.00 84 1009.3
20260506102104 29 19 2.0 4.0 0.00 0.00 0.00 84 1008.7
20260506101600 29 9 2.0 4.0 0.00 0.00 0.00 85 1009.4
20260506101057 29 24 1.0 3.0 0.00 0.00 0.00 85 1009.1
20260506100555 29 338 0.0 3.0 0.00 0.00 0.00 84 1009.0
20260506100053 29 269 0.0 4.0 0.00 0.00 0.00 83 1009.0
20260506095552 29 310 3.0 4.0 0.00 0.00 0.00 83 1008.9
20260506095048 29 356 2.0 4.0 0.00 0.00 0.00 84 1008.9
20260506094545 29 350 1.0 3.0 0.00 0.00 0.00 83 1008.7
20260506094043 29 17 1.0 2.0 0.00 0.00 0.00 83 1009.0
20260506093541 30 354 2.0 4.0 0.00 0.00 0.00 82 1009.0
20260506093038 30 341 2.0 3.0 0.00 0.00 0.00 82 1009.0
20260506092536 30 356 2.0 4.0 0.00 0.00 0.00 82 1008.8
20260506092033 30 334 3.0 4.0 0.00 0.00 0.00 82 1008.8
20260506091531 30 345 2.0 3.0 0.00 0.00 0.00 81 1008.5
20260506091028 30 350 2.0 4.0 0.00 0.00 0.00 82 1008.6
20260506090526 30 352 2.0 4.0 0.00 0.00 0.00 82 1008.7
20260506090022 30 11 3.0 4.0 0.00 0.00 0.00 81 1008.8
20260506085519 30 3 2.0 3.0 0.00 0.00 0.00 81 1008.7
20260506085015 30 359 2.0 4.0 0.00 0.00 0.00 81 1008.7
20260506084512 30 348 2.0 3.0 0.00 0.00 0.00 81 1008.9
20260506084008 30 15 2.0 4.0 0.00 0.00 0.00 81 1008.7
20260506083506 31 13 2.0 3.0 0.00 0.00 0.00 80 1008.8
20260506083003 31 0 1.0 3.0 0.00 0.00 0.00 80 1008.9
20260506082500 31 311 0.0 4.0 0.00 0.00 0.00 80 1008.6
20260506081955 31 3 2.0 3.0 0.00 0.00 0.00 79 1008.6
20260506081454 32 348 1.0 3.0 0.00 0.00 0.00 79 1008.7
20260506080951 32 24 2.0 3.0 0.00 0.00 0.00 79 1008.5
20260506080448 32 42 1.0 3.0 0.00 0.00 0.00 78 1008.5
20260506073432 34 14 2.0 3.0 0.00 0.00 0.00 74 1008.1
20260506072929 34 340 2.0 6.0 0.00 0.00 0.00 72 1008.1
20260506072426 34 330 5.0 6.0 0.00 0.00 0.00 74 1008.1
20260506071924 34 333 1.0 5.0 0.00 0.00 0.00 74 1008.1
20260506071422 34 25 2.0 3.0 0.00 0.00 0.00 74 1007.9
20260506070918 34 32 1.0 3.0 0.00 0.00 0.00 74 1008.0
20260506070415 34 346 3.0 3.0 0.00 0.00 0.00 73 1007.9
20260506062353 36 325 3.0 6.0 0.00 0.00 0.00 69 1007.7
20260506061848 36 312 2.0 5.0 0.00 0.00 0.00 69 1007.6
20260506061345 36 327 3.0 4.0 0.00 0.00 0.00 69 1007.6
20260506060843 37 343 1.0 4.0 0.00 0.00 0.00 67 1007.5
20260506060341 37 1 0.0 7.0 0.00 0.00 0.00 66 1007.8
20260506051313 39 330 3.0 6.0 0.00 0.00 0.00 62 1007.5
20260506050811 40 314 3.0 7.0 0.00 0.00 0.00 61 1007.4
20260506050308 40 329 3.0 7.0 0.00 0.00 0.00 60 1007.3
20260506044758 41 313 5.0 11.0 0.00 0.00 0.00 57 1007.2
20260506044256 42 316 5.0 11.0 0.00 0.00 0.00 56 1007.4
20260506043753 42 333 4.0 11.0 0.00 0.00 0.00 56 1007.2
20260506043250 42 343 3.0 13.0 0.00 0.00 0.00 56 1007.2
20260506042749 42 324 7.0 10.0 0.00 0.00 0.00 56 1006.9
20260506042248 42 319 5.0 14.0 0.00 0.00 0.00 56 1007.0
20260506041746 42 304 3.0 10.0 0.00 0.00 0.00 56 1007.0
20260506041242 42 324 3.0 11.0 0.00 0.00 0.00 56 1006.9
20260506040739 42 232 3.0 9.0 0.00 0.00 0.00 56 1006.7
20260506040236 43 255 2.0 12.0 0.00 0.00 0.00 55 1006.8
20260506035733 43 200 2.0 7.0 0.00 0.00 0.00 54 1006.9
20260506035230 44 298 2.0 10.0 0.00 0.00 0.00 54 1006.9
20260506034727 44 304 1.0 7.0 0.00 0.00 0.00 54 1006.8
20260506034224 44 299 1.0 7.0 0.00 0.00 0.00 54 1006.6
20260506033721 44 321 3.0 7.0 0.00 0.00 0.00 53 1006.9
20260506033218 44 342 3.0 8.0 0.00 0.00 0.00 53 1006.8
20260506032715 44 261 0.0 5.0 0.00 0.00 0.00 53 1006.7
20260506032212 44 288 3.0 5.0 0.00 0.00 0.00 53 1006.8
20260506031709 44 315 3.0 8.0 0.00 0.00 0.00 52 1006.6
20260506031206 44 311 4.0 7.0 0.00 0.00 0.00 53 1006.7
20260506030704 44 312 8.0 9.0 0.00 0.00 0.00 52 1006.7
20260506030201 44 209 0.0 6.0 0.00 0.00 0.00 52 1006.8
20260506025658 43 276 1.0 8.0 0.00 0.00 0.00 53 1006.6
20260506025154 43 302 3.0 5.0 0.00 0.00 0.00 53 1006.5
20260506024652 43 220 1.0 4.0 0.00 0.00 0.00 54 1006.7
20260506024148 43 246 0.0 5.0 0.00 0.00 0.00 56 1006.6
20260506023644 43 318 2.0 3.0 0.00 0.00 0.00 55 1006.6
20260506023142 44 317 3.0 5.0 0.00 0.00 0.00 54 1006.3
20260506022639 44 295 2.0 7.0 0.00 0.00 0.00 53 1006.3
20260506022136 44 282 1.0 4.0 0.00 0.00 0.00 53 1006.3
20260506021634 45 221 1.0 5.0 0.00 0.00 0.00 51 1006.3
20260506021131 45 303 2.0 10.0 0.00 0.00 0.00 50 1006.5
20260506020628 46 252 2.0 8.0 0.00 0.00 0.00 49 1006.2
20260506020125 46 309 4.0 8.0 0.00 0.00 0.00 49 1006.1
20260506015623 46 198 0.0 10.0 0.00 0.00 0.00 49 1006.1
20260506015119 46 299 5.0 8.0 0.00 0.00 0.00 48 1006.0
20260506014612 46 304 3.0 7.0 0.00 0.00 0.00 48 1006.1
20260506014107 46 303 6.0 15.0 0.00 0.00 0.00 47 1006.1
20260506013606 46 236 0.0 10.0 0.00 0.00 0.00 47 1005.7
20260506013102 46 297 3.0 11.0 0.00 0.00 0.00 47 1005.8
20260506012558 46 288 2.0 17.0 0.00 0.00 0.00 47 1005.8
20260506012054 47 316 5.0 9.0 0.00 0.00 0.00 47 1005.6
20260506011553 47 286 6.0 14.0 0.00 0.00 0.00 46 1005.6
20260506011048 47 311 5.0 12.0 0.00 0.00 0.00 46 1005.7
20260506010542 47 255 1.0 14.0 0.00 0.00 0.00 46 1005.7
20260506010038 47 319 4.0 7.0 0.00 0.00 0.00 46 1005.7
20260506005536 47 296 9.0 10.0 0.00 0.00 0.00 45 1005.6
20260506005031 47 294 5.0 9.0 0.00 0.00 0.00 45 1005.5
20260506004529 47 56 1.0 9.0 0.00 0.00 0.00 46 1005.4
20260506004026 47 300 7.0 10.0 0.00 0.00 0.00 44 1005.2
20260506003522 48 297 3.0 15.0 0.00 0.00 0.00 43 1005.2
20260506003018 48 321 8.0 15.0 0.00 0.00 0.00 42 1005.5
20260506002514 48 328 5.0 16.0 0.00 0.00 0.00 43 1005.5
20260506002010 48 333 5.0 14.0 0.00 0.00 0.00 42 1005.5
20260506001507 49 338 5.0 18.0 0.00 0.00 0.00 42 1004.9
20260506001004 49 287 7.0 15.0 0.00 0.00 0.00 42 1005.1
20260506000502 49 308 3.0 11.0 0.00 0.00 0.00 43 1005.0
20260505235958 49 247 2.0 16.0 0.00 0.00 0.00 42 1005.0
20260505235456 49 324 6.0 17.0 0.00 0.00 0.00 41 1005.0
20260505234953 49 138 2.0 10.0 0.00 0.00 0.00 43 1005.0
20260505234450 49 310 8.0 14.0 0.00 0.00 0.00 42 1005.0
20260505233947 49 277 4.0 14.0 0.00 0.00 0.00 42 1004.9
20260505233445 49 215 3.0 13.0 0.00 0.00 0.00 43 1005.0
20260505232942 50 298 3.0 10.0 0.00 0.00 0.00 42 1004.9
20260505232440 49 319 6.0 13.0 0.00 0.00 0.00 43 1005.1
20260505231937 48 317 5.0 18.0 0.00 0.00 0.00 43 1005.0
20260505231434 49 322 9.0 20.0 0.00 0.00 0.00 43 1005.1
20260505230932 49 337 4.0 17.0 0.00 0.00 0.00 42 1005.0
20260505230429 50 235 3.0 13.0 0.00 0.00 0.00 43 1005.1
20260505225925 50 286 5.0 12.0 0.00 0.00 0.00 43 1005.0
20260505225423 50 285 7.0 18.0 0.00 0.00 0.00 41 1005.4
20260505224918 50 293 5.0 11.0 0.00 0.00 0.00 42 1005.1
20260505224416 50 238 9.0 18.0 0.00 0.00 0.00 41 1005.4
20260505223913 49 350 3.0 9.0 0.00 0.00 0.00 44 1005.1
20260505223410 49 307 9.0 9.0 0.00 0.00 0.00 41 1005.2
20260505222906 49 233 0.0 10.0 0.00 0.00 0.00 43 1005.2
20260505222402 49 238 4.0 15.0 0.00 0.00 0.00 42 1005.2
20260505221859 49 3 3.0 21.0 0.00 0.00 0.00 43 1005.1
20260505221355 50 318 3.0 11.0 0.00 0.00 0.00 43 1005.0
20260505220853 50 328 6.0 11.0 0.00 0.00 0.00 42 1005.1
20260505220350 50 295 5.0 16.0 0.00 0.00 0.00 42 1005.4
20260505215847 50 351 4.0 11.0 0.00 0.00 0.00 40 1004.8
20260505215345 50 324 3.0 15.0 0.00 0.00 0.00 41 1005.0
20260505214843 51 267 3.0 20.0 0.00 0.00 0.00 40 1005.1
20260505214340 50 256 0.0 16.0 0.00 0.00 0.00 39 1005.2
20260505213837 50 265 7.0 12.0 0.00 0.00 0.00 41 1005.2
20260505213335 50 317 5.0 15.0 0.00 0.00 0.00 40 1005.4
20260505212831 50 128 3.0 8.0 0.00 0.00 0.00 39 1005.1
20260505212328 50 267 4.0 13.0 0.00 0.00 0.00 40 1005.4
20260505211824 51 58 3.0 14.0 0.00 0.00 0.00 40 1005.2
20260505211322 50 303 5.0 22.0 0.00 0.00 0.00 39 1005.1
20260505210818 50 311 4.0 16.0 0.00 0.00 0.00 40 1005.2
20260505210315 50 254 6.0 13.0 0.00 0.00 0.00 39 1005.0
20260505205812 50 347 5.0 17.0 0.00 0.00 0.00 37 1005.2
20260505205311 50 187 3.0 15.0 0.00 0.00 0.00 37 1005.1
20260505204807 52 301 5.0 7.0 0.00 0.00 0.00 35 1005.2
20260505204305 54 21 3.0 12.0 0.00 0.00 0.00 36 1005.1
20260505203802 52 310 3.0 6.0 0.00 0.00 0.00 37 1005.0
20260505203259 51 340 8.0 13.0 0.00 0.00 0.00 37 1005.4
20260505202755 52 39 3.0 18.0 0.00 0.00 0.00 35 1005.6
20260505202251 51 310 2.0 15.0 0.00 0.00 0.00 37 1005.4
20260505201747 51 223 3.0 12.0 0.00 0.00 0.00 37 1005.6
20260505201245 51 112 2.0 12.0 0.00 0.00 0.00 36 1005.4
20260505200743 53 315 2.0 13.0 0.00 0.00 0.00 37 1005.4
20260505200240 52 224 3.0 19.0 0.00 0.00 0.00 36 1005.5
20260505195735 52 308 3.0 15.0 0.00 0.00 0.00 36 1005.8
20260505195233 51 113 2.0 18.0 0.00 0.00 0.00 37 1005.7
20260505194730 50 224 0.0 13.0 0.00 0.00 0.00 37 1005.6
20260505194227 51 315 8.0 14.0 0.00 0.00 0.00 36 1005.8
20260505193722 51 344 4.0 11.0 0.00 0.00 0.00 36 1005.6
20260505193220 52 316 7.0 13.0 0.00 0.00 0.00 34 1005.5
20260505192718 52 273 5.0 15.0 0.00 0.00 0.00 34 1005.7
20260505192216 53 317 5.0 16.0 0.00 0.00 0.00 35 1005.6
20260505191714 51 156 5.0 15.0 0.00 0.00 0.00 36 1005.8
20260505191212 50 279 5.0 16.0 0.00 0.00 0.00 37 1005.8
20260505190708 50 118 3.0 17.0 0.00 0.00 0.00 37 1005.7
20260505190207 50 324 9.0 26.0 0.00 0.00 0.00 37 1005.7
20260505185704 50 251 4.0 20.0 0.00 0.00 0.00 37 1005.7
20260505185201 50 322 6.0 18.0 0.00 0.00 0.00 37 1005.7
20260505184657 50 47 4.0 13.0 0.00 0.00 0.00 37 1005.7
20260505184154 49 170 5.0 20.0 0.00 0.00 0.00 39 1005.8
20260505183651 49 329 0.0 17.0 0.00 0.00 0.00 39 1005.7
20260505183149 50 301 3.0 7.0 0.00 0.00 0.00 38 1005.5
20260505182645 50 324 4.0 22.0 0.00 0.00 0.00 37 1005.7
20260505182142 51 188 4.0 20.0 0.00 0.00 0.00 38 1005.5